• In Russia
  • List of Countries
  • For 7 days
  • Water Temperature
  • Satellite Maps
  • Weather Map
  • Weather Widgets
  • user-avatar
    Login

    Hourly Weather Canberra

    Today, 25 May, Thursday

    Time Temperature Precipitation Wind Pressure Humidity
    00:00 +6°C° 0 mm 1 mps 710 mmHg 96%
    01:00 +6°C° 0 mm 1 mps 710 mmHg 96%
    02:00 +6°C° 0 mm 1 mps 710 mmHg 96%
    03:00 +5°C° 0 mm 1 mps 711 mmHg 96%
    04:00 +5°C° 0 mm 1 mps 710 mmHg 95%
    05:00 +5°C° 0 mm 1 mps 711 mmHg 95%
    06:00 +5°C° 0 mm 1 mps 711 mmHg 95%
    07:00 +5°C° 0 mm 1 mps 711 mmHg 95%
    08:00 +7°C° 0 mm 1 mps 712 mmHg 85%
    09:00 +10°C° 0 mm 1 mps 712 mmHg 75%
    10:00 +12°C° 0 mm 1 mps 712 mmHg 67%
    11:00 +14°C° 0 mm 1 mps 712 mmHg 62%
    12:00 +15°C° 0 mm 1 mps 712 mmHg 56%
    13:00 +16°C° 0 mm 2 mps 711 mmHg 51%
    14:00 +16°C° 0 mm 2 mps 711 mmHg 55%
    15:00 +15°C° 0 mm 2 mps 711 mmHg 59%
    16:00 +14°C° 0 mm 2 mps 711 mmHg 67%
    17:00 +12°C° 0 mm 2 mps 711 mmHg 76%
    18:00 +9°C° 0 mm 2 mps 711 mmHg 84%
    19:00 +8°C° 0 mm 2 mps 711 mmHg 93%
    20:00 +7°C° 0 mm 2 mps 711 mmHg 94%
    21:00 +7°C° 0 mm 2 mps 711 mmHg 95%
    22:00 +7°C° 0 mm 1 mps 711 mmHg 95%
    23:00 +7°C° 0 mm 1 mps 711 mmHg 95%

    Tomorrow, 26 May, Friday

    Time Temperature Precipitation Wind Pressure Humidity
    00:00 +6°C° 0 mm 1 mps 711 mmHg 95%
    01:00 +6°C° 0 mm 1 mps 711 mmHg 95%
    02:00 +6°C° 0 mm 1 mps 711 mmHg 94%
    03:00 +6°C° 0 mm 1 mps 711 mmHg 93%
    04:00 +6°C° 0 mm 1 mps 711 mmHg 92%
    05:00 +5°C° 0 mm 1 mps 711 mmHg 93%
    06:00 +5°C° 0 mm 1 mps 712 mmHg 93%
    07:00 +5°C° 0 mm 1 mps 712 mmHg 93%
    08:00 +8°C° 0 mm 1 mps 712 mmHg 82%
    09:00 +11°C° 0 mm 1 mps 713 mmHg 72%
    10:00 +13°C° 0 mm 0 mps 713 mmHg 61%
    11:00 +14°C° 0 mm 0 mps 713 mmHg 57%
    12:00 +16°C° 0 mm 1 mps 713 mmHg 53%
    13:00 +19°C° 0 mm 1 mps 712 mmHg 49%
    14:00 +18°C° 0 mm 1 mps 712 mmHg 53%
    15:00 +16°C° 0 mm 1 mps 712 mmHg 58%
    16:00 +15°C° 0 mm 1 mps 712 mmHg 62%
    17:00 +13°C° 0 mm 1 mps 712 mmHg 73%
    18:00 +10°C° 0 mm 1 mps 712 mmHg 84%
    19:00 +8°C° 0 mm 1 mps 712 mmHg 94%
    20:00 +7°C° 0 mm 1 mps 712 mmHg 95%
    21:00 +7°C° 0 mm 1 mps 712 mmHg 97%
    22:00 +6°C° 0 mm 1 mps 712 mmHg 98%
    23:00 +6°C° 0 mm 1 mps 712 mmHg 98%

    Day after tomorrow, 27 May, Saturday

    Time Temperature Precipitation Wind Pressure Humidity
    00:00 +6°C° 0 mm 1 mps 712 mmHg 98%
    01:00 +6°C° 0 mm 1 mps 712 mmHg 99%
    02:00 +5°C° 0 mm 1 mps 712 mmHg 99%
    03:00 +4°C° 0 mm 0 mps 712 mmHg 99%
    04:00 +4°C° 0 mm 0 mps 711 mmHg 99%
    05:00 +4°C° 0 mm 0 mps 711 mmHg 99%
    06:00 +5°C° 0 mm 1 mps 712 mmHg 99%
    07:00 +5°C° 0 mm 1 mps 712 mmHg 99%
    08:00 +7°C° 0 mm 1 mps 712 mmHg 91%
    09:00 +10°C° 0 mm 1 mps 712 mmHg 83%
    10:00 +13°C° 0 mm 1 mps 712 mmHg 76%
    11:00 +14°C° 0 mm 2 mps 712 mmHg 68%
    12:00 +15°C° 0 mm 2 mps 711 mmHg 61%
    13:00 +16°C° 0 mm 2 mps 711 mmHg 53%
    14:00 +16°C° 0 mm 2 mps 710 mmHg 56%
    15:00 +15°C° 0 mm 2 mps 710 mmHg 59%
    16:00 +15°C° 0 mm 2 mps 709 mmHg 62%
    17:00 +12°C° 0 mm 2 mps 709 mmHg 72%
    18:00 +9°C° 0 mm 2 mps 709 mmHg 81%
    19:00 +8°C° 0 mm 1 mps 709 mmHg 91%
    20:00 +7°C° 0 mm 2 mps 709 mmHg 92%
    21:00 +7°C° 0 mm 2 mps 709 mmHg 92%
    22:00 +6°C° 0 mm 2 mps 709 mmHg 93%
    23:00 +6°C° 0 mm 2 mps 709 mmHg 92%

    28 May, Sunday

    Time Temperature Precipitation Wind Pressure Humidity
    00:00 +6°C° 0 mm 2 mps 709 mmHg 91%
    01:00 +6°C° 0 mm 2 mps 708 mmHg 91%
    02:00 +6°C° 0 mm 2 mps 708 mmHg 91%
    03:00 +6°C° 0 mm 2 mps 707 mmHg 91%
    04:00 +6°C° 0 mm 2 mps 707 mmHg 91%
    05:00 +6°C° 0 mm 2 mps 707 mmHg 92%
    06:00 +6°C° 0 mm 2 mps 707 mmHg 92%
    07:00 +6°C° 0 mm 2 mps 707 mmHg 92%
    08:00 +8°C° 0 mm 3 mps 707 mmHg 85%
    09:00 +10°C° 0 mm 3 mps 708 mmHg 77%
    10:00 +12°C° 0 mm 4 mps 708 mmHg 69%
    11:00 +12°C° 0 mm 5 mps 707 mmHg 66%
    12:00 +13°C° 0 mm 5 mps 707 mmHg 62%
    13:00 +14°C° 0 mm 5 mps 707 mmHg 58%
    14:00 +13°C° 0.1 mm 5 mps 707 mmHg 63%
    15:00 +12°C° 0.1 mm 5 mps 706 mmHg 68%
    16:00 +11°C° 0.1 mm 4 mps 706 mmHg 73%
    17:00 +10°C° 0 mm 4 mps 707 mmHg 78%
    18:00 +9°C° 0 mm 3 mps 707 mmHg 83%
    19:00 +7°C° 0 mm 3 mps 707 mmHg 88%
    20:00 +7°C° 0 mm 3 mps 708 mmHg 88%
    21:00 +7°C° 0 mm 3 mps 708 mmHg 87%
    22:00 +5°C° 0 mm 3 mps 708 mmHg 87%
    23:00 +5°C° 0 mm 3 mps 708 mmHg 86%

    29 May, Monday

    Time Temperature Precipitation Wind Pressure Humidity
    00:00 +6°C° 0 mm 2 mps 708 mmHg 85%
    01:00 +6°C° 0 mm 2 mps 708 mmHg 84%
    02:00 +5°C° 0 mm 2 mps 708 mmHg 87%
    03:00 +5°C° 0 mm 2 mps 708 mmHg 89%
    04:00 +5°C° 0 mm 2 mps 708 mmHg 91%
    05:00 +4°C° 0 mm 2 mps 709 mmHg 93%
    06:00 +3°C° 0 mm 2 mps 709 mmHg 95%
    07:00 +4°C° 0 mm 1 mps 710 mmHg 97%
    08:00 +4°C° 0 mm 2 mps 710 mmHg 84%
    09:00 +6°C° 0 mm 2 mps 711 mmHg 72%
    10:00 +8°C° 0 mm 2 mps 711 mmHg 60%
    11:00 +9°C° 0 mm 3 mps 711 mmHg 54%
    12:00 +10°C° 0 mm 3 mps 711 mmHg 48%
    13:00 +11°C° 0 mm 3 mps 711 mmHg 42%
    14:00 +10°C° 0 mm 3 mps 711 mmHg 46%
    15:00 +10°C° 0 mm 3 mps 711 mmHg 50%
    16:00 +9°C° 0 mm 3 mps 710 mmHg 54%
    17:00 +7°C° 0 mm 2 mps 711 mmHg 64%
    18:00 +6°C° 0 mm 2 mps 711 mmHg 74%
    19:00 +4°C° 0 mm 2 mps 711 mmHg 84%
    20:00 +3°C° 0 mm 2 mps 712 mmHg 85%
    21:00 +3°C° 0 mm 2 mps 712 mmHg 87%
    22:00 +2°C° 0 mm 2 mps 712 mmHg 88%
    23:00 +2°C° 0 mm 2 mps 712 mmHg 88%

    30 May, Tuesday

    Time Temperature Precipitation Wind Pressure Humidity
    00:00 +2°C° 0 mm 2 mps 711 mmHg 87%
    01:00 +2°C° 0 mm 2 mps 711 mmHg 86%
    02:00 +2°C° 0 mm 2 mps 711 mmHg 85%
    03:00 +2°C° 0 mm 2 mps 711 mmHg 84%
    04:00 +2°C° 0 mm 3 mps 711 mmHg 84%
    05:00 +3°C° 0 mm 2 mps 711 mmHg 84%
    06:00 +3°C° 0 mm 2 mps 711 mmHg 85%
    07:00 +3°C° 0 mm 2 mps 711 mmHg 86%
    08:00 +4°C° 0 mm 3 mps 711 mmHg 82%
    09:00 +6°C° 0 mm 4 mps 711 mmHg 77%
    10:00 +8°C° 0 mm 5 mps 711 mmHg 73%
    11:00 +8°C° 0.1 mm 5 mps 711 mmHg 72%
    12:00 +9°C° 0.1 mm 5 mps 710 mmHg 70%
    13:00 +10°C° 0.1 mm 5 mps 710 mmHg 68%
    14:00 +9°C° 0 mm 5 mps 710 mmHg 70%
    15:00 +10°C° 0 mm 4 mps 710 mmHg 73%
    16:00 +10°C° 0 mm 4 mps 710 mmHg 75%
    17:00 +8°C° 0.1 mm 4 mps 710 mmHg 78%
    18:00 +8°C° 0.1 mm 4 mps 711 mmHg 82%
    19:00 +8°C° 0.1 mm 3 mps 711 mmHg 86%
    20:00 +8°C° 0 mm 3 mps 711 mmHg 85%
    21:00 +7°C° 0 mm 3 mps 711 mmHg 85%
    22:00 +7°C° 0 mm 3 mps 712 mmHg 84%
    23:00 +5°C° 0 mm 3 mps 711 mmHg 84%
    Show more